| time (UTC) | temp F | wind direction | speed knots | gust knots | rain 1hr in | rain 24hr in | rain mn in | humidity % | barometer mb |
| 20260906174351 | 86 | 358 | 2.6 | 4.3 | 0.00 | 0.00 | 0.00 | 100 | |
| 20260906173851 | 87 | 53 | 2.6 | 4.3 | 0.00 | 0.00 | 0.00 | 100 | |
| 20260906173351 | 86 | 94 | 0.0 | 4.3 | 0.00 | 0.00 | 0.00 | 100 | |
| 20260906172851 | 87 | 355 | 0.0 | 5.2 | 0.00 | 0.00 | 0.00 | 100 | |
| 20260906172351 | 86 | 288 | 0.9 | 5.2 | 0.00 | 0.00 | 0.00 | 100 | |
| 20260906171851 | 87 | 260 | 2.6 | 3.5 | 0.00 | 0.00 | 0.00 | 100 | |
| 20260906171351 | 86 | 237 | 1.7 | 3.5 | 0.00 | 0.00 | 0.00 | 100 | |
| 20260906170851 | 86 | 16 | 0.0 | 4.3 | 0.00 | 0.00 | 0.00 | 100 | |
| 20260906170351 | 86 | 12 | 1.7 | 7.0 | 0.00 | 0.00 | 0.00 | 100 | |
| 20260906165851 | 86 | 286 | 3.5 | 6.1 | 0.00 | 0.00 | 0.00 | 100 | |
| 20260906165351 | 87 | 227 | 2.6 | 6.1 | 0.00 | 0.00 | 0.00 | 100 | |
| 20260906164851 | 87 | 14 | 3.5 | 4.3 | 0.00 | 0.00 | 0.00 | 100 | |
| 20260906164351 | 87 | 4 | 0.0 | 6.1 | 0.00 | 0.00 | 0.00 | 100 | |
| 20260906163851 | 87 | 341 | 6.1 | 7.0 | 0.00 | 0.00 | 0.00 | 100 | |
| 20260906163351 | 87 | 333 | 5.2 | 7.8 | 0.00 | 0.00 | 0.00 | 100 | |
| 20260906162851 | 87 | 310 | 1.7 | 9.6 | 0.00 | 0.00 | 0.00 | 100 | |
| 20260906162351 | 87 | 315 | 3.5 | 7.0 | 0.00 | 0.00 | 0.00 | 100 | |
| 20260906161851 | 88 | 289 | 0.0 | 5.2 | 0.00 | 0.00 | 0.00 | 100 | |
| 20260906161351 | 87 | 326 | 3.5 | 7.0 | 0.00 | 0.00 | 0.00 | 100 | |
| 20260906160851 | 89 | 326 | 4.3 | 6.1 | 0.00 | 0.00 | 0.00 | 100 | |
| 20260906160351 | 89 | 84 | 3.5 | 7.8 | 0.00 | 0.00 | 0.00 | 100 | |
| 20260906155851 | 89 | 277 | 4.3 | 5.2 | 0.00 | 0.00 | 0.00 | 100 | |
| 20260906155351 | 89 | 236 | 2.6 | 5.2 | 0.00 | 0.00 | 0.00 | 100 | |
| 20260906154851 | 89 | 286 | 3.5 | 6.1 | 0.00 | 0.00 | 0.00 | 100 | |
| 20260906154351 | 87 | 286 | 0.9 | 7.0 | 0.00 | 0.00 | 0.00 | 100 | |
| 20260906153851 | 88 | 344 | 4.3 | 7.0 | 0.00 | 0.00 | 0.00 | 100 | |
| 20260906153351 | 87 | 300 | 7.0 | 7.8 | 0.00 | 0.00 | 0.00 | 100 | |
| 20260906152851 | 88 | 317 | 4.3 | 7.8 | 0.00 | 0.00 | 0.00 | 100 | |
| 20260906152351 | 88 | 313 | 4.3 | 7.8 | 0.00 | 0.00 | 0.00 | 100 | |
| 20260906151851 | 89 | 119 | 0.0 | 7.0 | 0.00 | 0.00 | 0.00 | 100 | |
| 20260906151351 | 89 | 4 | 1.7 | 6.1 | 0.00 | 0.00 | 0.00 | 100 | |
| 20260906150851 | 89 | 358 | 2.6 | 8.7 | 0.00 | 0.00 | 0.00 | 100 | |
| 20260906150351 | 89 | 354 | 0.9 | 6.1 | 0.00 | 0.00 | 0.00 | 100 | |
| 20260906145851 | 89 | 309 | 2.6 | 7.0 | 0.00 | 0.00 | 0.00 | 100 | |
| 20260906145351 | 87 | 265 | 1.7 | 7.0 | 0.00 | 0.00 | 0.00 | 100 | |
| 20260906144851 | 89 | 21 | 2.6 | 7.0 | 0.00 | 0.00 | 0.00 | 100 | |
| 20260906144351 | 89 | 322 | 2.6 | 7.0 | 0.00 | 0.00 | 0.00 | 100 | |
| 20260906143851 | 89 | 12 | 3.5 | 7.0 | 0.00 | 0.00 | 0.00 | 100 | |
| 20260906143351 | 89 | 312 | 2.6 | 6.1 | 0.00 | 0.00 | 0.00 | 100 | |
| 20260906142851 | 89 | 182 | 0.9 | 7.8 | 0.00 | 0.00 | 0.00 | 100 | |
| 20260906142351 | 88 | 309 | 2.6 | 7.8 | 0.00 | 0.00 | 0.00 | 100 | |
| 20260906141851 | 87 | 315 | 2.6 | 7.8 | 0.00 | 0.00 | 0.00 | 100 | |
| 20260906141351 | 87 | 323 | 3.5 | 7.0 | 0.00 | 0.00 | 0.00 | 100 | |
| 20260906140851 | 86 | 303 | 6.1 | 7.0 | 0.00 | 0.00 | 0.00 | 100 | |
| 20260906140351 | 87 | 286 | 3.5 | 7.8 | 0.00 | 0.00 | 0.00 | 100 | |
| 20260906135851 | 87 | 336 | 2.6 | 7.0 | 0.00 | 0.00 | 0.00 | 100 | |
| 20260906135351 | 87 | 29 | 2.6 | 6.1 | 0.00 | 0.00 | 0.00 | 100 | |
| 20260906134851 | 88 | 320 | 3.5 | 7.8 | 0.00 | 0.00 | 0.00 | 100 | |
| 20260906134351 | 88 | 319 | 1.7 | 7.0 | 0.00 | 0.00 | 0.00 | 100 | |
| 20260906133851 | 88 | 327 | 4.3 | 9.6 | 0.00 | 0.00 | 0.00 | 100 | |
| 20260906133351 | 87 | 343 | 7.0 | 7.8 | 0.00 | 0.00 | 0.00 | 100 | |
| 20260906132851 | 88 | 319 | 4.3 | 8.7 | 0.00 | 0.00 | 0.00 | 100 | |
| 20260906132351 | 89 | 291 | 1.7 | 7.0 | 0.00 | 0.00 | 0.00 | 100 | |
| 20260906131851 | 89 | 306 | 2.6 | 6.1 | 0.00 | 0.00 | 0.00 | 100 | |
| 20260906131351 | 89 | 282 | 2.6 | 6.1 | 0.00 | 0.00 | 0.00 | 100 | |
| 20260906130851 | 89 | 341 | 2.6 | 4.3 | 0.00 | 0.00 | 0.00 | 100 | |
| 20260906130351 | 90 | 298 | 1.7 | 6.1 | 0.00 | 0.00 | 0.00 | 100 | |
| 20260906125851 | 89 | 215 | 0.0 | 5.2 | 0.00 | 0.00 | 0.00 | 100 | |
| 20260906125351 | 89 | 244 | 1.7 | 5.2 | 0.00 | 0.00 | 0.00 | 100 | |
| 20260906124851 | 89 | 320 | 2.6 | 6.1 | 0.00 | 0.00 | 0.00 | 100 | |
| 20260906124351 | 89 | 344 | 0.9 | 6.1 | 0.00 | 0.00 | 0.00 | 100 | |
| 20260906123851 | 89 | 343 | 1.7 | 6.1 | 0.00 | 0.00 | 0.00 | 100 | |
| 20260906123351 | 89 | 322 | 3.5 | 7.8 | 0.00 | 0.00 | 0.00 | 100 | |
| 20260906122851 | 89 | 302 | 2.6 | 7.8 | 0.00 | 0.00 | 0.00 | 100 | |
| 20260906122351 | 89 | 12 | 3.5 | 8.7 | 0.00 | 0.00 | 0.00 | 100 | |
| 20260906121851 | 89 | 30 | 0.9 | 8.7 | 0.00 | 0.00 | 0.00 | 100 | |
| 20260906121351 | 90 | 262 | 1.7 | 7.8 | 0.00 | 0.00 | 0.00 | 100 | |
| 20260906120851 | 91 | 260 | 0.9 | 5.2 | 0.00 | 0.00 | 0.00 | 100 | |
| 20260906120351 | 90 | 306 | 4.3 | 6.1 | 0.00 | 0.00 | 0.00 | 100 | |
| 20260906115851 | 91 | 309 | 2.6 | 6.1 | 0.00 | 0.00 | 0.00 | 100 | |
| 20260906115351 | 91 | 140 | 0.9 | 6.1 | 0.00 | 0.00 | 0.00 | 100 | |
| 20260906114851 | 91 | 330 | 3.5 | 5.2 | 0.00 | 0.00 | 0.00 | 100 | |
| 20260906114351 | 91 | 293 | 0.9 | 4.3 | 0.00 | 0.00 | 0.00 | 100 | |
| 20260906113851 | 92 | 306 | 0.0 | 5.2 | 0.00 | 0.00 | 0.00 | 100 | |
| 20260906113351 | 91 | 88 | 1.7 | 5.2 | 0.00 | 0.00 | 0.00 | 100 | |
| 20260906112851 | 91 | 344 | 5.2 | 5.2 | 0.00 | 0.00 | 0.00 | 100 | |
| 20260906112351 | 91 | 350 | 2.6 | 3.5 | 0.00 | 0.00 | 0.00 | 100 | |
| 20260906111851 | 91 | 11 | 0.9 | 3.5 | 0.00 | 0.00 | 0.00 | 100 | |
| 20260906111351 | 90 | 19 | 0.0 | 1.7 | 0.00 | 0.00 | 0.00 | 100 | |
| 20260906110851 | 90 | 68 | 0.9 | 5.2 | 0.00 | 0.00 | 0.00 | 100 | |
| 20260906110351 | 89 | 336 | 1.7 | 4.3 | 0.00 | 0.00 | 0.00 | 100 | |
| 20260906105851 | 89 | 74 | 1.7 | 3.5 | 0.00 | 0.00 | 0.00 | 100 | |
| 20260906105351 | 89 | 1 | 0.0 | 3.5 | 0.00 | 0.00 | 0.00 | 100 | |
| 20260906104851 | 89 | 345 | 0.9 | 2.6 | 0.00 | 0.00 | 0.00 | 100 | |
| 20260906104351 | 87 | 195 | 1.7 | 4.3 | 0.00 | 0.00 | 0.00 | 100 | |
| 20260906103851 | 88 | 50 | 3.5 | 6.1 | 0.00 | 0.00 | 0.00 | 100 | |
| 20260906103351 | 87 | 120 | 1.7 | 4.3 | 0.00 | 0.00 | 0.00 | 100 | |
| 20260906102851 | 87 | 88 | 2.6 | 3.5 | 0.00 | 0.00 | 0.00 | 100 | |
| 20260906102351 | 87 | 4 | 1.7 | 4.3 | 0.00 | 0.00 | 0.00 | 100 | |
| 20260906101851 | 87 | 74 | 2.6 | 3.5 | 0.00 | 0.00 | 0.00 | 100 | |
| 20260906101351 | 86 | 130 | 1.7 | 1.7 | 0.00 | 0.00 | 0.00 | 100 | |
| 20260906100851 | 87 | 40 | 0.9 | 3.5 | 0.00 | 0.00 | 0.00 | 100 | |
| 20260906100351 | 87 | 40 | 0.0 | 0.9 | 0.00 | 0.00 | 0.00 | 100 | |
| 20260906095851 | 86 | 326 | 0.0 | 3.5 | 0.00 | 0.00 | 0.00 | 100 | |
| 20260906095351 | 87 | 85 | 0.0 | 0.9 | 0.00 | 0.00 | 0.00 | 100 | |
| 20260906094851 | 87 | 16 | 0.0 | 3.5 | 0.00 | 0.00 | 0.00 | 100 | |
| 20260906094351 | 87 | 319 | 0.0 | 1.7 | 0.00 | 0.00 | 0.00 | 100 | |
| 20260906093851 | 86 | 40 | 0.0 | 0.0 | 0.00 | 0.00 | 0.00 | 100 | |
| 20260906093351 | 86 | 32 | 0.0 | 0.0 | 0.00 | 0.00 | 0.00 | 100 | |
| 20260906092851 | 85 | 32 | 0.0 | 1.7 | 0.00 | 0.00 | 0.00 | 100 | |
| 20260906092352 | 86 | 246 | 0.0 | 1.7 | 0.00 | 0.00 | 0.00 | 100 | |
| 20260906091851 | 86 | 265 | 0.0 | 0.9 | 0.00 | 0.00 | 0.00 | 100 | |
| 20260906091351 | 85 | 165 | 0.0 | 0.0 | 0.00 | 0.00 | 0.00 | 100 | |
| 20260906090851 | 85 | 165 | 0.0 | 1.7 | 0.00 | 0.00 | 0.00 | 100 | |
| 20260906090351 | 85 | 305 | 0.9 | 2.6 | 0.00 | 0.00 | 0.00 | 100 | |
| 20260906085851 | 85 | 275 | 0.9 | 0.9 | 0.00 | 0.00 | 0.00 | 100 | |
| 20260906085351 | 85 | 192 | 0.0 | 0.0 | 0.00 | 0.00 | 0.00 | 100 | |
| 20260906084851 | 84 | 192 | 0.0 | 1.7 | 0.00 | 0.00 | 0.00 | 100 | |
| 20260906084351 | 84 | 254 | 0.0 | 1.7 | 0.00 | 0.00 | 0.00 | 100 | |
| 20260906083851 | 84 | 7 | 0.0 | 2.6 | 0.00 | 0.00 | 0.00 | 100 | |
| 20260906083351 | 83 | 268 | 0.9 | 5.2 | 0.00 | 0.00 | 0.00 | 100 | |
| 20260906082851 | 83 | 217 | 1.7 | 3.5 | 0.00 | 0.00 | 0.00 | 100 | |
| 20260906082351 | 83 | 168 | 0.0 | 4.3 | 0.00 | 0.00 | 0.00 | 100 | |
| 20260906081851 | 83 | 217 | 1.7 | 2.6 | 0.00 | 0.00 | 0.00 | 100 | |
| 20260906081351 | 82 | 170 | 0.9 | 3.5 | 0.00 | 0.00 | 0.00 | 100 | |
| 20260906080851 | 82 | 233 | 0.9 | 3.5 | 0.00 | 0.00 | 0.00 | 100 | |
| 20260906080351 | 82 | 157 | 0.9 | 2.6 | 0.00 | 0.00 | 0.00 | 100 | |
| 20260906075851 | 81 | 189 | 0.0 | 2.6 | 0.00 | 0.00 | 0.00 | 100 | |
| 20260906075351 | 81 | 213 | 0.0 | 1.7 | 0.00 | 0.00 | 0.00 | 100 | |
| 20260906074851 | 81 | 230 | 1.7 | 3.5 | 0.00 | 0.00 | 0.00 | 100 | |
| 20260906074351 | 81 | 217 | 0.9 | 3.5 | 0.00 | 0.00 | 0.00 | 100 | |
| 20260906073851 | 81 | 237 | 0.9 | 3.5 | 0.00 | 0.00 | 0.00 | 100 | |
| 20260906073351 | 81 | 227 | 0.9 | 2.6 | 0.00 | 0.00 | 0.00 | 100 | |
| 20260906072851 | 81 | 161 | 0.0 | 3.5 | 0.00 | 0.00 | 0.00 | 100 | |
| 20260906072351 | 82 | 168 | 0.0 | 2.6 | 0.00 | 0.00 | 0.00 | 100 | |
| 20260906071851 | 82 | 246 | 0.0 | 3.5 | 0.00 | 0.00 | 0.00 | 100 | |
| 20260906071351 | 81 | 217 | 0.9 | 3.5 | 0.00 | 0.00 | 0.00 | 100 | |
| 20260906070851 | 81 | 225 | 0.9 | 5.2 | 0.00 | 0.00 | 0.00 | 100 | |
| 20260906070351 | 81 | 241 | 3.5 | 4.3 | 0.00 | 0.00 | 0.00 | 100 | |
| 20260906065851 | 81 | 194 | 1.7 | 5.2 | 0.00 | 0.00 | 0.00 | 100 | |
| 20260906065351 | 81 | 227 | 0.0 | 0.0 | 0.00 | 0.00 | 0.00 | 100 | |
| 20260906064851 | 81 | 227 | 0.0 | 1.7 | 0.00 | 0.00 | 0.00 | 100 | |
| 20260906064351 | 81 | 225 | 0.0 | 0.9 | 0.00 | 0.00 | 0.00 | 100 | |
| 20260906063851 | 80 | 182 | 0.0 | 0.9 | 0.00 | 0.00 | 0.00 | 100 | |
| 20260906063351 | 80 | 271 | 0.9 | 1.7 | 0.00 | 0.00 | 0.00 | 100 | |
| 20260906062851 | 79 | 232 | 0.0 | 3.5 | 0.00 | 0.00 | 0.00 | 100 | |
| 20260906062351 | 79 | 215 | 0.9 | 2.6 | 0.00 | 0.00 | 0.00 | 100 | |
| 20260906061851 | 79 | 247 | 0.0 | 4.3 | 0.00 | 0.00 | 0.00 | 100 | |
| 20260906061351 | 79 | 227 | 1.7 | 4.3 | 0.00 | 0.00 | 0.00 | 100 | |
| 20260906060851 | 79 | 216 | 0.0 | 0.0 | 0.00 | 0.00 | 0.00 | 100 | |
| 20260906060351 | 79 | 216 | 0.0 | 0.9 | 0.00 | 0.00 | 0.00 | 100 | |
| 20260906055851 | 79 | 225 | 0.0 | 2.6 | 0.00 | 0.00 | 0.00 | 100 | |
| 20260906055351 | 79 | 212 | 0.0 | 3.5 | 0.00 | 0.00 | 0.00 | 100 | |
| 20260906054851 | 79 | 180 | 0.0 | 3.5 | 0.00 | 0.00 | 0.00 | 100 | |
| 20260906054352 | 79 | 223 | 0.0 | 3.5 | 0.00 | 0.00 | 0.00 | 100 | |
| 20260906053851 | 79 | 272 | 0.9 | 3.5 | 0.00 | 0.00 | 0.00 | 100 | |
| 20260906053352 | 79 | 209 | 0.0 | 2.6 | 0.00 | 0.00 | 0.00 | 100 | |
| 20260906052852 | 79 | 237 | 2.6 | 4.3 | 0.00 | 0.00 | 0.00 | 100 | |
| 20260906052352 | 79 | 208 | 0.0 | 0.9 | 0.00 | 0.00 | 0.00 | 100 | |
| 20260906051852 | 79 | 210 | 0.0 | 7.0 | 0.00 | 0.00 | 0.00 | 100 | |
| 20260906051352 | 79 | 222 | 0.0 | 3.5 | 0.00 | 0.00 | 0.00 | 100 | |
| 20260906050852 | 79 | 213 | 0.0 | 2.6 | 0.00 | 0.00 | 0.00 | 100 | |
| 20260906050352 | 79 | 236 | 1.7 | 3.5 | 0.00 | 0.00 | 0.00 | 100 | |
| 20260906045852 | 78 | 219 | 0.0 | 4.3 | 0.00 | 0.00 | 0.00 | 100 | |
| 20260906045352 | 78 | 230 | 0.0 | 3.5 | 0.00 | 0.00 | 0.00 | 100 | |
| 20260906044852 | 79 | 255 | 1.7 | 4.3 | 0.00 | 0.00 | 0.00 | 100 | |
| 20260906044352 | 78 | 307 | 0.0 | 4.3 | 0.00 | 0.00 | 0.00 | 100 | |
| 20260906043852 | 79 | 222 | 1.7 | 6.1 | 0.00 | 0.00 | 0.00 | 100 | |
| 20260906043352 | 79 | 194 | 0.0 | 6.1 | 0.00 | 0.00 | 0.00 | 100 | |
| 20260906042852 | 79 | 225 | 5.2 | 5.2 | 0.00 | 0.00 | 0.00 | 100 | |
| 20260906042352 | 79 | 260 | 0.0 | 6.1 | 0.00 | 0.00 | 0.00 | 100 | |
| 20260906041852 | 79 | 230 | 5.2 | 7.8 | 0.00 | 0.00 | 0.00 | 100 | |
| 20260906041352 | 79 | 202 | 7.0 | 7.0 | 0.00 | 0.00 | 0.00 | 100 | |
| 20260906040852 | 79 | 223 | 7.0 | 7.0 | 0.00 | 0.00 | 0.00 | 100 | |
| 20260906040352 | 79 | 164 | 0.9 | 7.0 | 0.00 | 0.00 | 0.00 | 100 | |
| 20260906035852 | 79 | 275 | 0.9 | 6.1 | 0.00 | 0.00 | 0.00 | 100 | |
| 20260906035352 | 78 | 230 | 4.3 | 7.0 | 0.00 | 0.00 | 0.00 | 100 | |
| 20260906034852 | 79 | 222 | 3.5 | 6.1 | 0.00 | 0.00 | 0.00 | 100 | |
| 20260906034352 | 79 | 260 | 2.6 | 7.0 | 0.00 | 0.00 | 0.00 | 100 | |
| 20260906033852 | 79 | 257 | 5.2 | 6.1 | 0.00 | 0.00 | 0.00 | 100 | |
| 20260906033352 | 80 | 137 | 0.9 | 5.2 | 0.00 | 0.00 | 0.00 | 100 | |
| 20260906032852 | 80 | 292 | 0.9 | 6.1 | 0.00 | 0.00 | 0.00 | 100 | |
| 20260906032352 | 79 | 234 | 2.6 | 5.2 | 0.00 | 0.00 | 0.00 | 100 | |
| 20260906031852 | 79 | 171 | 0.0 | 6.1 | 0.00 | 0.00 | 0.00 | 100 | |
| 20260906031352 | 80 | 279 | 1.7 | 6.1 | 0.00 | 0.00 | 0.00 | 100 | |
| 20260906030852 | 80 | 225 | 1.7 | 5.2 | 0.00 | 0.00 | 0.00 | 100 | |
| 20260906030352 | 79 | 220 | 1.7 | 6.1 | 0.00 | 0.00 | 0.00 | 100 | |
| 20260906025852 | 79 | 255 | 0.0 | 3.5 | 0.00 | 0.00 | 0.00 | 100 | |
| 20260906025352 | 79 | 320 | 0.0 | 6.1 | 0.00 | 0.00 | 0.00 | 100 | |
| 20260906024852 | 79 | 352 | 0.0 | 5.2 | 0.00 | 0.00 | 0.00 | 100 | |
| 20260906024352 | 79 | 324 | 0.9 | 5.2 | 0.00 | 0.00 | 0.00 | 100 | |
| 20260906023852 | 80 | 187 | 0.0 | 4.3 | 0.00 | 0.00 | 0.00 | 100 | |
| 20260906023352 | 80 | 282 | 3.5 | 4.3 | 0.00 | 0.00 | 0.00 | 100 | |
| 20260906022852 | 79 | 223 | 1.7 | 5.2 | 0.00 | 0.00 | 0.00 | 100 | |
| 20260906022352 | 80 | 217 | 2.6 | 5.2 | 0.00 | 0.00 | 0.00 | 100 | |
| 20260906021852 | 79 | 264 | 0.0 | 6.1 | 0.00 | 0.00 | 0.00 | 100 | |
| 20260906021352 | 80 | 226 | 4.3 | 4.3 | 0.00 | 0.00 | 0.00 | 100 | |
| 20260906020852 | 80 | 205 | 2.6 | 4.3 | 0.00 | 0.00 | 0.00 | 100 | |
| 20260906020352 | 80 | 286 | 1.7 | 7.0 | 0.00 | 0.00 | 0.00 | 100 | |
| 20260906015852 | 80 | 248 | 3.5 | 7.0 | 0.00 | 0.00 | 0.00 | 100 | |
| 20260906015352 | 80 | 279 | 1.7 | 6.1 | 0.00 | 0.00 | 0.00 | 100 | |
| 20260906014852 | 80 | 251 | 5.2 | 7.8 | 0.00 | 0.00 | 0.00 | 100 | |
| 20260906014352 | 80 | 229 | 5.2 | 7.0 | 0.00 | 0.00 | 0.00 | 100 | |
| 20260906013852 | 80 | 257 | 1.7 | 6.1 | 0.00 | 0.00 | 0.00 | 100 | |
| 20260906013352 | 80 | 226 | 3.5 | 6.1 | 0.00 | 0.00 | 0.00 | 100 | |
| 20260906012852 | 80 | 240 | 1.7 | 4.3 | 0.00 | 0.00 | 0.00 | 100 | |
| 20260906012352 | 81 | 213 | 3.5 | 4.3 | 0.00 | 0.00 | 0.00 | 100 | |
| 20260906011852 | 81 | 244 | 3.5 | 7.0 | 0.00 | 0.00 | 0.00 | 100 | |
| 20260906011352 | 81 | 220 | 2.6 | 4.3 | 0.00 | 0.00 | 0.00 | 100 | |
| 20260906010852 | 81 | 196 | 0.9 | 4.3 | 0.00 | 0.00 | 0.00 | 100 | |
| 20260906010352 | 80 | 205 | 0.9 | 6.1 | 0.00 | 0.00 | 0.00 | 100 | |
| 20260906005852 | 80 | 170 | 1.7 | 5.2 | 0.00 | 0.00 | 0.00 | 100 | |
| 20260906005352 | 80 | 313 | 0.0 | 6.1 | 0.00 | 0.00 | 0.00 | 100 | |
| 20260906004852 | 80 | 236 | 0.0 | 4.3 | 0.00 | 0.00 | 0.00 | 100 | |
| 20260906004352 | 80 | 300 | 0.0 | 5.2 | 0.00 | 0.00 | 0.00 | 100 | |
| 20260906003852 | 80 | 191 | 2.6 | 7.0 | 0.00 | 0.00 | 0.00 | 100 | |
| 20260906003352 | 80 | 195 | 2.6 | 7.0 | 0.00 | 0.00 | 0.00 | 100 | |
| 20260906002852 | 80 | 264 | 2.6 | 7.0 | 0.00 | 0.00 | 0.00 | 100 | |
| 20260906002352 | 81 | 292 | 2.6 | 5.2 | 0.00 | 0.00 | 0.00 | 100 | |
| 20260906001852 | 81 | 258 | 0.9 | 3.5 | 0.00 | 0.00 | 0.00 | 100 | |
| 20260906001352 | 81 | 319 | 0.0 | 2.6 | 0.00 | 0.00 | 0.00 | 100 | |
| 20260906000852 | 81 | 262 | 0.9 | 3.5 | 0.00 | 0.00 | 0.00 | 100 | |
| 20260906000352 | 80 | 243 | 1.7 | 2.6 | 0.00 | 0.00 | 0.00 | 100 | |
| 20260905235852 | 81 | 227 | 1.7 | 5.2 | 0.00 | 0.00 | 0.00 | 100 | |
| 20260905235352 | 81 | 248 | 3.5 | 6.1 | 0.00 | 0.00 | 0.00 | 100 | |
| 20260905234852 | 81 | 226 | 3.5 | 6.1 | 0.00 | 0.00 | 0.00 | 100 | |
| 20260905234352 | 81 | 253 | 2.6 | 7.0 | 0.00 | 0.00 | 0.00 | 100 | |
| 20260905233852 | 81 | 220 | 4.3 | 5.2 | 0.00 | 0.00 | 0.00 | 100 | |
| 20260905233352 | 81 | 171 | 0.0 | 0.0 | 0.00 | 0.00 | 0.00 | 100 | |
| 20260905232852 | 81 | 171 | 0.0 | 2.6 | 0.00 | 0.00 | 0.00 | 100 | |
| 20260905232352 | 82 | 341 | 0.0 | 2.6 | 0.00 | 0.00 | 0.00 | 100 | |
| 20260905231852 | 81 | 293 | 1.7 | 2.6 | 0.00 | 0.00 | 0.00 | 100 | |
| 20260905231352 | 80 | 222 | 0.0 | 2.6 | 0.00 | 0.00 | 0.00 | 100 | |
| 20260905230852 | 81 | 2 | 0.0 | 1.7 | 0.00 | 0.00 | 0.00 | 100 | |
| 20260905230352 | 82 | 181 | 0.0 | 2.6 | 0.00 | 0.00 | 0.00 | 100 | |
| 20260905225852 | 80 | 255 | 0.0 | 5.2 | 0.00 | 0.00 | 0.00 | 100 | |
| 20260905225352 | 81 | 229 | 0.0 | 7.8 | 0.00 | 0.00 | 0.00 | 100 | |
| 20260905224852 | 81 | 285 | 2.6 | 8.7 | 0.00 | 0.00 | 0.00 | 100 | |
| 20260905224353 | 81 | 175 | 0.0 | 8.7 | 0.00 | 0.00 | 0.00 | 100 | |
| 20260905223852 | 81 | 219 | 0.9 | 7.0 | 0.00 | 0.00 | 0.00 | 100 | |
| 20260905223352 | 81 | 250 | 5.2 | 7.8 | 0.00 | 0.00 | 0.00 | 100 | |
| 20260905222852 | 81 | 205 | 1.7 | 9.6 | 0.00 | 0.00 | 0.00 | 100 | |
| 20260905222352 | 81 | 272 | 2.6 | 8.7 | 0.00 | 0.00 | 0.00 | 100 | |
| 20260905221852 | 82 | 198 | 6.1 | 8.7 | 0.00 | 0.00 | 0.00 | 100 | |
| 20260905221352 | 81 | 232 | 3.5 | 6.1 | 0.00 | 0.00 | 0.00 | 100 | |
| 20260905220852 | 82 | 309 | 0.0 | 6.1 | 0.00 | 0.00 | 0.00 | 100 | |
| 20260905220352 | 81 | 168 | 0.0 | 5.2 | 0.00 | 0.00 | 0.00 | 100 | |
| 20260905215852 | 81 | 262 | 1.7 | 6.1 | 0.00 | 0.00 | 0.00 | 100 | |
| 20260905215352 | 81 | 331 | 0.9 | 6.1 | 0.00 | 0.00 | 0.00 | 100 | |
| 20260905214852 | 81 | 322 | 3.5 | 6.1 | 0.00 | 0.00 | 0.00 | 100 | |
| 20260905214352 | 81 | 326 | 2.6 | 7.0 | 0.00 | 0.00 | 0.00 | 100 | |
| 20260905213852 | 82 | 18 | 0.9 | 5.2 | 0.00 | 0.00 | 0.00 | 100 | |
| 20260905213352 | 82 | 257 | 1.7 | 3.5 | 0.00 | 0.00 | 0.00 | 100 | |
| 20260905212852 | 82 | 185 | 0.0 | 4.3 | 0.00 | 0.00 | 0.00 | 100 | |
| 20260905212352 | 82 | 192 | 0.0 | 0.9 | 0.00 | 0.00 | 0.00 | 100 | |
| 20260905211852 | 82 | 233 | 0.0 | 1.7 | 0.00 | 0.00 | 0.00 | 100 | |
| 20260905211352 | 82 | 303 | 0.9 | 1.7 | 0.00 | 0.00 | 0.00 | 100 | |
| 20260905210852 | 82 | 192 | 0.0 | 2.6 | 0.00 | 0.00 | 0.00 | 100 | |
| 20260905210352 | 82 | 220 | 0.9 | 2.6 | 0.00 | 0.00 | 0.00 | 100 | |
| 20260905205852 | 82 | 261 | 0.9 | 3.5 | 0.00 | 0.00 | 0.00 | 100 | |
| 20260905205352 | 82 | 286 | 0.0 | 2.6 | 0.00 | 0.00 | 0.00 | 100 | |
| 20260905204852 | 82 | 241 | 0.9 | 2.6 | 0.00 | 0.00 | 0.00 | 100 | |
| 20260905204352 | 82 | 247 | 1.7 | 2.6 | 0.00 | 0.00 | 0.00 | 100 | |
| 20260905203852 | 82 | 158 | 0.0 | 1.7 | 0.00 | 0.00 | 0.00 | 100 | |
| 20260905203352 | 82 | 182 | 0.9 | 1.7 | 0.00 | 0.00 | 0.00 | 100 | |
| 20260905202852 | 82 | 185 | 0.0 | 1.7 | 0.00 | 0.00 | 0.00 | 100 | |
| 20260905202352 | 82 | 172 | 0.0 | 0.0 | 0.00 | 0.00 | 0.00 | 100 | |
| 20260905201852 | 82 | 172 | 0.0 | 0.0 | 0.00 | 0.00 | 0.00 | 100 | |
| 20260905201352 | 81 | 172 | 0.0 | 0.0 | 0.00 | 0.00 | 0.00 | 100 | |
| 20260905200852 | 81 | 172 | 0.0 | 0.0 | 0.00 | 0.00 | 0.00 | 100 | |
| 20260905200352 | 82 | 172 | 0.0 | 0.0 | 0.00 | 0.00 | 0.00 | 100 | |
| 20260905195852 | 82 | 172 | 0.0 | 0.0 | 0.00 | 0.00 | 0.00 | 100 | |
| 20260905195352 | 81 | 172 | 0.0 | 0.0 | 0.00 | 0.00 | 0.00 | 100 | |
| 20260905194852 | 82 | 172 | 0.0 | 0.0 | 0.00 | 0.00 | 0.00 | 100 | |
| 20260905194352 | 81 | 172 | 0.0 | 0.0 | 0.00 | 0.00 | 0.00 | 100 | |
| 20260905193852 | 82 | 172 | 0.0 | 0.0 | 0.00 | 0.00 | 0.00 | 100 | |
| 20260905193352 | 82 | 300 | 0.0 | 0.0 | 0.00 | 0.00 | 0.00 | 100 | |
| 20260905192852 | 81 | 300 | 0.0 | 2.6 | 0.00 | 0.00 | 0.00 | 100 | |
| 20260905192352 | 80 | 59 | 0.0 | 2.6 | 0.00 | 0.00 | 0.00 | 100 | |
| 20260905191852 | 80 | 30 | 2.6 | 2.6 | 0.00 | 0.00 | 0.00 | 100 | |
| 20260905191352 | 81 | 344 | 2.6 | 3.5 | 0.00 | 0.00 | 0.00 | 100 | |
| 20260905190852 | 81 | 12 | 1.7 | 4.3 | 0.00 | 0.00 | 0.00 | 100 | |
| 20260905190352 | 82 | 23 | 2.6 | 4.3 | 0.00 | 0.00 | 0.00 | 100 | |
| 20260905185852 | 82 | 1 | 3.5 | 3.5 | 0.00 | 0.00 | 0.00 | 100 | |
| 20260905185352 | 82 | 112 | 1.7 | 3.5 | 0.00 | 0.00 | 0.00 | 100 | |
| 20260905184852 | 82 | 199 | 0.0 | 2.6 | 0.00 | 0.00 | 0.00 | 100 | |
| 20260905184352 | 83 | 331 | 1.7 | 4.3 | 0.00 | 0.00 | 0.00 | 100 | |
| 20260905183852 | 83 | 14 | 2.6 | 4.3 | 0.00 | 0.00 | 0.00 | 100 | |
| 20260905183352 | 83 | 270 | 0.9 | 4.3 | 0.00 | 0.00 | 0.00 | 100 | |
| 20260905182852 | 83 | 209 | 0.0 | 3.5 | 0.00 | 0.00 | 0.00 | 100 | |
| 20260905182352 | 84 | 315 | 0.0 | 2.6 | 0.00 | 0.00 | 0.00 | 100 | |
| 20260905181852 | 83 | 203 | 0.0 | 0.9 | 0.00 | 0.00 | 0.00 | 100 | |
| 20260905181352 | 83 | 223 | 0.9 | 1.7 | 0.00 | 0.00 | 0.00 | 100 | |
| 20260905180852 | 84 | 23 | 0.0 | 0.0 | 0.00 | 0.00 | 0.00 | 100 | |
| 20260905180352 | 83 | 23 | 0.0 | 0.0 | 0.00 | 0.00 | 0.00 | 100 | |
| 20260905175852 | 83 | 23 | 0.0 | 0.9 | 0.00 | 0.00 | 0.00 | 100 | |
| 20260905175352 | 82 | 265 | 0.9 | 1.7 | 0.00 | 0.00 | 0.00 | 100 | |
| 20260905174852 | 82 | 279 | 0.0 | 3.5 | 0.00 | 0.00 | 0.00 | 100 |